Location: Home
(42.5358°N, 72.7383°W)
Time: 12:00:23
(UTC-05:00)

Transit 4A - Pass Details

Date: 05 December 2021
Orbit: 864 x 981 km, 66.8° (Epoch: 19 January)

Event Time Altitude Azimuth Distance (km) Brightness Sun altitude
Rises 20:26:01 0° 257° (WSW) 3,472 11.6 -44.9°
Reaches altitude 10° 20:29:09 10° 273° (W) 2,554 10.8 -45.4°
Enters shadow 20:30:38 15° 286° (WNW) 2,220 10.4 -45.7°
Maximum altitude 20:33:29 21° 321° (NW) 1,940 - -46.2°
Drops below altitude 10° 20:37:54 10° 8° (N) 2,619 - -47.0°
Sets 20:41:11 0° 24° (NNE) 3,588 - -47.6°
